{"data":{"norad_id":67357,"epoch":"2026-09-19T13:26:05.217504Z","epoch_age_seconds":156604,"freshness":"FRESH","line1":"1 67357U 26003Z   26262.55978261  .00007953  00000+0  29815-3 0  9991","line2":"2 67357  42.9969 212.1988 0000938 264.3845  95.6900 15.27586906 38472","mean_motion":15.27586906,"eccentricity":9.38e-5,"inclination_deg":42.9969,"raan_deg":212.1988,"arg_perigee_deg":264.3845,"mean_anomaly_deg":95.69,"bstar":0.00029815,"rev_number":3847,"period_min":94.266322547282,"perigee_km":482.38483975302,"apogee_km":483.67199438526,"semimajor_km":6861.1654170691,"source":"CELESTRAK","updated_at":"2026-09-20T09:00:43.516761Z"}}